TimeCST,TemperatureF,Dew PointF,Humidity,Sea Level PressureIn,VisibilityMPH,Wind Direction,Wind SpeedMPH,Gust SpeedMPH,PrecipitationIn,Events,Conditions,WindDirDegrees,DateUTC
12:15 AM,23.0,14.0,68,30.37,10.0,NE,5.8,-,N/A,,Clear,40,2012-12-05 06:15:00
12:35 AM,23.0,14.0,68,30.36,10.0,ENE,5.8,-,N/A,,Clear,70,2012-12-05 06:35:00
12:55 AM,21.2,12.2,68,30.36,10.0,ENE,3.5,-,N/A,,Clear,60,2012-12-05 06:55:00
1:15 AM,19.4,12.2,74,30.37,10.0,ENE,3.5,-,N/A,,Clear,60,2012-12-05 07:15:00
1:35 AM,21.2,14.0,74,30.37,10.0,ENE,5.8,-,N/A,,Clear,60,2012-12-05 07:35:00
1:55 AM,19.4,10.4,68,30.36,10.0,ENE,6.9,-,N/A,,Clear,60,2012-12-05 07:55:00
2:15 AM,19.4,10.4,68,30.36,10.0,East,4.6,-,N/A,,Clear,100,2012-12-05 08:15:00
2:35 AM,19.4,12.2,74,30.37,10.0,East,3.5,-,N/A,,Clear,90,2012-12-05 08:35:00
2:55 AM,19.4,12.2,74,30.36,10.0,ESE,3.5,-,N/A,,Clear,110,2012-12-05 08:55:00
3:15 AM,21.2,15.8,80,30.35,10.0,ESE,4.6,-,N/A,,Clear,120,2012-12-05 09:15:00
3:35 AM,21.2,15.8,80,30.36,10.0,East,3.5,-,N/A,,Clear,90,2012-12-05 09:35:00
3:55 AM,21.2,15.8,80,30.35,10.0,East,4.6,-,N/A,,Clear,90,2012-12-05 09:55:00
4:15 AM,23.0,15.8,74,30.34,10.0,ESE,4.6,-,N/A,,Clear,120,2012-12-05 10:15:00
4:35 AM,23.0,15.8,74,30.34,10.0,East,5.8,-,N/A,,Clear,100,2012-12-05 10:35:00
4:55 AM,21.2,12.2,68,30.34,10.0,East,6.9,-,N/A,,Clear,100,2012-12-05 10:55:00
5:15 AM,21.2,14.0,74,30.33,10.0,ESE,6.9,-,N/A,,Clear,110,2012-12-05 11:15:00
5:35 AM,21.2,15.8,80,30.33,10.0,SE,5.8,-,N/A,,Clear,130,2012-12-05 11:35:00
5:55 AM,23.0,14.0,68,30.33,10.0,SE,5.8,-,N/A,,Clear,140,2012-12-05 11:55:00
6:15 AM,23.0,14.0,68,30.34,10.0,SE,6.9,-,N/A,,Clear,140,2012-12-05 12:15:00
6:35 AM,23.0,12.2,63,30.33,10.0,SE,8.1,-,N/A,,Clear,130,2012-12-05 12:35:00
6:55 AM,23.0,14.0,68,30.32,10.0,SE,8.1,-,N/A,,Clear,130,2012-12-05 12:55:00
8:35 AM,24.8,15.8,69,30.31,10.0,SE,10.4,-,N/A,,Clear,140,2012-12-05 14:35:00
8:55 AM,26.6,17.6,69,30.31,10.0,SE,8.1,-,N/A,,Clear,140,2012-12-05 14:55:00
9:15 AM,28.4,17.6,64,30.31,10.0,SSE,8.1,-,N/A,,Clear,150,2012-12-05 15:15:00
9:35 AM,28.4,17.6,64,30.30,10.0,SE,10.4,16.1,N/A,,Clear,140,2012-12-05 15:35:00
9:55 AM,30.2,19.4,64,30.30,10.0,SSE,11.5,-,N/A,,Clear,160,2012-12-05 15:55:00
10:15 AM,30.2,17.6,60,30.29,10.0,SE,9.2,-,N/A,,Clear,140,2012-12-05 16:15:00
10:35 AM,32.0,19.4,60,30.28,10.0,SE,9.2,-,N/A,,Clear,140,2012-12-05 16:35:00
10:55 AM,33.8,21.2,60,30.27,10.0,SSE,11.5,17.3,N/A,,Clear,160,2012-12-05 16:55:00
11:15 AM,35.6,23.0,60,30.25,10.0,SSE,11.5,17.3,N/A,,Clear,150,2012-12-05 17:15:00
11:35 AM,35.6,21.2,56,30.23,10.0,SSE,10.4,17.3,N/A,,Clear,150,2012-12-05 17:35:00
11:55 AM,37.4,23.0,56,30.21,10.0,SE,8.1,-,N/A,,Clear,140,2012-12-05 17:55:00
12:15 PM,37.4,23.0,56,30.20,10.0,SSE,10.4,19.6,N/A,,Clear,150,2012-12-05 18:15:00
12:35 PM,39.2,24.8,56,30.18,10.0,SSE,12.7,-,N/A,,Clear,150,2012-12-05 18:35:00
12:55 PM,41.0,24.8,53,30.17,10.0,SSE,6.9,-,N/A,,Clear,160,2012-12-05 18:55:00
1:15 PM,42.8,24.8,49,30.15,10.0,SSE,11.5,18.4,N/A,,Clear,150,2012-12-05 19:15:00
1:35 PM,42.8,26.6,53,30.14,10.0,SSE,13.8,19.6,N/A,,Clear,160,2012-12-05 19:35:00
1:55 PM,44.6,26.6,49,30.12,10.0,South,13.8,21.9,N/A,,Clear,170,2012-12-05 19:55:00
2:15 PM,44.6,26.6,49,30.12,10.0,SSE,12.7,19.6,N/A,,Clear,160,2012-12-05 20:15:00
2:35 PM,44.6,26.6,49,30.09,10.0,SSE,12.7,17.3,N/A,,Clear,150,2012-12-05 20:35:00
2:55 PM,44.6,26.6,49,30.09,10.0,SSE,10.4,16.1,N/A,,Clear,160,2012-12-05 20:55:00
3:15 PM,44.6,26.6,49,30.08,10.0,SSE,12.7,-,N/A,,Clear,150,2012-12-05 21:15:00
3:35 PM,44.6,26.6,49,30.08,10.0,SSE,10.4,-,N/A,,Clear,150,2012-12-05 21:35:00
3:55 PM,42.8,26.6,53,30.07,10.0,SSE,11.5,-,N/A,,Clear,150,2012-12-05 21:55:00
4:15 PM,42.8,26.6,53,30.06,10.0,SSE,15.0,19.6,N/A,,Clear,150,2012-12-05 22:15:00
4:35 PM,42.8,24.8,49,30.05,10.0,SSE,12.7,20.7,N/A,,Clear,150,2012-12-05 22:35:00
4:55 PM,41.0,24.8,53,30.04,10.0,SE,12.7,19.6,N/A,,Clear,140,2012-12-05 22:55:00
5:15 PM,41.0,26.6,57,30.03,10.0,SSE,13.8,20.7,N/A,,Clear,150,2012-12-05 23:15:00
5:35 PM,41.0,26.6,57,30.02,10.0,SSE,13.8,25.3,N/A,,Clear,150,2012-12-05 23:35:00
5:55 PM,41.0,26.6,57,30.01,10.0,SE,16.1,21.9,N/A,,Clear,140,2012-12-05 23:55:00
6:15 PM,42.8,26.6,53,30.01,10.0,SSE,12.7,23.0,N/A,,Clear,150,2012-12-06 00:15:00
6:35 PM,42.8,26.6,53,29.99,10.0,SSE,15.0,24.2,N/A,,Scattered Clouds,150,2012-12-06 00:35:00
6:55 PM,42.8,28.4,57,29.98,0.2,SSE,16.1,23.0,N/A,,Overcast,160,2012-12-06 00:55:00
7:15 PM,42.8,28.4,57,29.97,10.0,SSE,16.1,25.3,N/A,,Scattered Clouds,160,2012-12-06 01:15:00
7:35 PM,42.8,28.4,57,29.97,10.0,SSE,15.0,25.3,N/A,,Mostly Cloudy,160,2012-12-06 01:35:00
7:55 PM,44.6,28.4,53,29.97,10.0,SSE,16.1,31.1,N/A,,Mostly Cloudy,150,2012-12-06 01:55:00
8:15 PM,44.6,28.4,53,29.96,10.0,SSE,18.4,26.5,N/A,,Overcast,160,2012-12-06 02:15:00
8:35 PM,44.6,30.2,57,29.95,10.0,SSE,18.4,26.5,N/A,,Overcast,160,2012-12-06 02:35:00
8:55 PM,44.6,30.2,57,29.95,10.0,South,20.7,32.2,N/A,,Overcast,170,2012-12-06 02:55:00
9:15 PM,46.4,30.2,53,29.94,10.0,South,19.6,31.1,N/A,,Overcast,170,2012-12-06 03:15:00
9:35 PM,46.4,30.2,53,29.92,10.0,South,21.9,34.5,N/A,,Overcast,170,2012-12-06 03:35:00
9:55 PM,46.4,30.2,53,29.92,10.0,South,18.4,31.1,N/A,,Overcast,170,2012-12-06 03:55:00
10:15 PM,46.4,32.0,57,29.93,10.0,South,18.4,31.1,N/A,,Overcast,170,2012-12-06 04:15:00
10:35 PM,46.4,32.0,57,29.92,10.0,South,21.9,29.9,N/A,,Overcast,180,2012-12-06 04:35:00
10:55 PM,46.4,32.0,57,29.93,10.0,South,17.3,27.6,N/A,,Overcast,180,2012-12-06 04:55:00
11:15 PM,44.6,32.0,61,29.93,10.0,South,20.7,31.1,N/A,,Overcast,180,2012-12-06 05:15:00
11:35 PM,44.6,32.0,61,29.93,10.0,South,15.0,26.5,N/A,,Overcast,170,2012-12-06 05:35:00
11:55 PM,44.6,32.0,61,29.93,10.0,South,17.3,26.5,N/A,,Mostly Cloudy,180,2012-12-06 05:55:00